FW2916 Weather Reports


Display with metric or nautical units.
time (UTC)temp
F
wind
direction
speed
MPH
gust
MPH
rain 1hr
in
rain 24hr
in
rain mn
in
humidity
%
barometer
mb
20260904174554 95 234 2.0 6.0 0.00 0.02 0.00 56 1014.4
20260904173049 94 221 0.0 7.0 0.00 0.02 0.00 58 1014.6
20260904171542 94 253 2.0 6.0 0.00 0.02 0.00 58 1014.7
20260904170055 93 160 2.0 7.0 0.00 0.02 0.00 61 1014.9
20260904164549 92 264 0.0 11.0 0.00 0.02 0.00 63 1015.0
20260904163046 91 281 1.0 8.0 0.00 0.02 0.00 64 1015.1
20260904161544 90 235 2.0 9.0 0.00 0.02 0.00 65 1015.1
20260904160051 90 177 3.0 10.0 0.00 0.02 0.00 66 1015.2
20260904154554 90 42 0.0 5.0 0.00 0.02 0.00 67 1015.2
20260904153043 89 230 3.0 7.0 0.00 0.02 0.00 67 1015.2
20260904151553 89 223 2.0 6.0 0.00 0.02 0.00 67 1015.3
20260904150047 87 0 2.0 10.0 0.00 0.02 0.00 70 1015.1
20260904144549 86 240 1.0 5.0 0.00 0.02 0.00 70 1015.2
20260904143047 86 234 1.0 5.0 0.00 0.02 0.00 71 1015.1
20260904141543 85 226 0.0 5.0 0.00 0.02 0.00 73 1015.1
20260904140049 84 164 1.0 6.0 0.00 0.02 0.00 73 1015.1
20260904134556 83 202 0.0 1.0 0.00 0.02 0.00 76 1015.0
20260904133042 82 0 0.0 0.0 0.00 0.02 0.00 79 1015.0
20260904131548 79 0 0.0 0.0 0.00 0.02 0.00 82 1014.9
20260904130048 75 0 0.0 0.0 0.00 0.02 0.00 89 1014.9
20260904124549 73 0 0.0 0.0 0.00 0.02 0.00 92 1014.6
20260904123048 72 0 0.0 0.0 0.00 0.02 0.00 92 1014.4
20260904121543 71 0 0.0 0.0 0.00 0.02 0.00 92 1014.2
20260904120048 71 0 0.0 0.0 0.00 0.02 0.00 91 1014.2
20260904114552 72 0 0.0 1.0 0.00 0.02 0.00 91 1014.1
20260904113044 72 0 0.0 0.0 0.00 0.02 0.00 91 1013.9
20260904111546 72 0 0.0 1.0 0.00 0.02 0.00 91 1013.9
20260904110040 72 0 0.0 1.0 0.00 0.02 0.00 90 1013.7
20260904104557 72 0 0.0 0.0 0.00 0.02 0.00 89 1013.7
20260904103049 73 0 0.0 0.0 0.00 0.02 0.00 88 1013.6
20260904101543 73 0 0.0 1.0 0.00 0.02 0.00 89 1013.6
20260904100042 73 0 0.0 0.0 0.00 0.02 0.00 89 1013.5
20260904094553 72 0 0.0 0.0 0.00 0.02 0.00 90 1013.5
20260904093048 72 0 0.0 0.0 0.00 0.02 0.00 89 1013.3
20260904091544 72 0 0.0 0.0 0.00 0.02 0.00 88 1013.1
20260904090057 73 0 0.0 0.0 0.00 0.02 0.00 88 1012.9
20260904084549 73 0 0.0 0.0 0.00 0.02 0.00 88 1012.9
20260904083048 73 0 0.0 0.0 0.00 0.02 0.00 86 1012.9
20260904081542 74 0 0.0 0.0 0.00 0.02 0.00 86 1012.7
20260904080050 74 0 0.0 0.0 0.00 0.02 0.00 85 1012.7
20260904074548 75 0 0.0 0.0 0.00 0.02 0.00 85 1012.5
20260904073043 74 0 0.0 0.0 0.00 0.02 0.00 84 1012.6
20260904071552 75 0 0.0 0.0 0.00 0.02 0.00 82 1012.5
20260904070042 76 0 0.0 0.0 0.00 0.02 0.00 81 1012.5
20260904064547 77 0 0.0 0.0 0.00 0.02 0.00 81 1012.7
20260904063042 78 0 0.0 0.0 0.00 0.02 0.00 78 1012.7
20260904061542 78 0 0.0 0.0 0.00 0.02 0.00 77 1012.5
20260904060042 78 0 0.0 0.0 0.00 0.02 0.00 76 1012.5
20260904054548 77 0 0.0 0.0 0.00 0.02 0.00 78 1012.5
20260904053046 77 0 0.0 0.0 0.00 0.02 0.00 78 1012.5
20260904051552 77 0 0.0 0.0 0.00 0.02 0.00 77 1012.4
20260904050051 77 0 0.0 0.0 0.00 0.02 0.00 78 1012.3
20260904044548 77 0 0.0 0.0 0.00 0.02 0.02 80 1012.3
20260904043042 77 0 0.0 0.0 0.00 0.02 0.02 79 1012.2
20260904041542 78 0 0.0 0.0 0.00 0.02 0.02 78 1012.1
20260904040054 78 0 0.0 0.0 0.00 0.02 0.02 78 1012.1
20260904034548 79 0 0.0 0.0 0.00 0.02 0.02 77 1012.1
20260904033042 79 0 0.0 0.0 0.00 0.02 0.02 77 1012.2
20260904031542 79 0 0.0 0.0 0.00 0.02 0.02 76 1012.2
20260904030048 79 0 0.0 0.0 0.00 0.02 0.02 75 1012.2
20260904024544 80 0 0.0 0.0 0.00 0.02 0.02 74 1012.2
20260904023044 81 0 0.0 0.0 0.00 0.02 0.02 71 1012.2
20260904021550 82 0 0.0 0.0 0.00 0.02 0.02 70 1012.0
20260904020041 83 0 0.0 0.0 0.00 0.02 0.02 68 1011.7
20260904014553 84 0 0.0 0.0 0.00 0.02 0.02 66 1011.5
20260904013041 86 0 0.0 0.0 0.00 0.02 0.02 65 1011.3
20260904011557 87 0 0.0 0.0 0.00 0.02 0.02 63 1011.2
20260904010040 88 0 0.0 0.0 0.00 0.02 0.02 61 1011.0
20260904004548 90 0 0.0 0.0 0.00 0.02 0.02 59 1011.0
20260904003042 91 0 0.0 4.0 0.00 0.02 0.02 57 1010.9
20260904001541 92 0 0.0 3.0 0.00 0.02 0.02 55 1010.9
20260904000051 93 0 0.0 3.0 0.00 0.02 0.02 52 1011.0
20260903234550 95 215 0.0 5.0 0.00 0.02 0.02 51 1011.0
20260903233043 96 257 0.0 4.0 0.00 0.02 0.02 48 1011.0
20260903231554 97 0 1.0 9.0 0.00 0.02 0.02 48 1010.8
20260903230043 98 310 1.0 8.0 0.00 0.02 0.02 47 1010.7
20260903224547 99 208 1.0 4.0 0.00 0.02 0.02 46 1010.9
20260903223050 99 136 1.0 6.0 0.00 0.02 0.02 46 1010.9
20260903221552 99 134 2.0 7.0 0.00 0.02 0.02 45 1011.2
20260903214548 100 221 1.0 7.0 0.00 0.02 0.02 45 1011.3
20260903213047 99 234 0.0 6.0 0.00 0.02 0.02 45 1011.5
20260903211543 99 233 1.0 7.0 0.00 0.02 0.02 46 1011.5
20260903210049 99 241 1.0 9.0 0.00 0.02 0.02 47 1011.6
20260903204549 98 246 2.0 7.0 0.02 0.02 0.02 47 1011.8
20260903203041 97 0 1.0 6.0 0.02 0.02 0.02 50 1011.9
20260903201552 98 183 3.0 11.0 0.02 0.02 0.02 49 1012.1
20260903200043 98 160 2.0 7.0 0.02 0.02 0.02 50 1012.1
20260903194549 98 203 2.0 8.0 0.00 0.00 0.00 49 1012.2
20260903193051 97 223 2.0 11.0 0.00 0.00 0.00 50 1012.3
20260903191545 97 135 1.0 10.0 0.00 0.00 0.00 53 1012.3
20260903190047 97 224 2.0 8.0 0.00 0.00 0.00 50 1012.5
20260903184541 96 131 2.0 10.0 0.00 0.00 0.00 51 1012.8
20260903183048 96 70 2.0 7.0 0.00 0.00 0.00 51 1013.0
20260903181542 96 184 3.0 7.0 0.00 0.00 0.00 51 1013.1
20260903180043 95 274 3.0 11.0 0.00 0.00 0.00 53 1013.3